Location: Cheb
(50.0670°N, 12.3670°E)
Time: 02:14:02
(UTC+02:00)

ISS - Pass Details

Date: 28 March 2019
Orbit: 408 x 410 km, 51.6° (Epoch: 23 April)

Event Time Altitude Azimuth Distance (km) Brightness Sun altitude
Rises 19:17:46 0° 256° (WSW) 2,333 1.3 -7.5°
Reaches altitude 10° 19:19:51 10° 258° (WSW) 1,472 0.2 -7.8°
Maximum altitude 19:23:09 82° 345° (NNW) 417 -3.8 -8.3°
Drops below altitude 10° 19:26:28 10° 75° (ENE) 1,474 -1.5 -8.8°
Enters shadow 19:26:35 - 75° (ENE) 1,524 -1.4 -8.9°
